Date String (YYYY-MM-DD hh:mm:ss) UTC,Instrument flags,Ambient pressure (hPa),Sample flow (lpm),Bypass flow (lpm),Sample temperature (°C),Ambient temperature (°C),ASC tube jacket temperature (°C),LED temperature (°C),Box temperature (°C),Sample RH (%),Span deviation,Mass concentration (μg/m³),Mass concentration (μg/m³),Mass concentration (μg/m³)
DateTimeUTC,F1_M11,P_M11,Q1_M11,Q2_M11,T1_M11,T2_M11,T3_M11,T4_M11,T5_M11,U1_M11,ZSPAN_M11,X2_M11,X0_M11,X1_M11
2022-01-15 21:00:00,,0828.7,5.01,0.00,22.8,22.3,00.0,31.9,24.6,10.6,0000.0,0004.50,0009.38,0003.93
2022-01-15 21:01:00,,0828.6,4.99,0.00,22.8,22.3,00.0,31.9,24.6,10.7,0000.0,0004.49,0009.37,0003.90
2022-01-15 21:02:00,,0828.8,5.01,0.00,22.9,22.3,00.0,31.9,24.6,10.8,0000.0,0004.51,0009.05,0003.89
2022-01-15 21:03:00,,0828.5,4.98,0.00,22.9,22.4,00.0,31.9,24.6,10.7,0000.0,0004.51,0009.03,0003.87
2022-01-15 21:04:00,,0828.6,5.01,0.00,22.9,22.4,00.0,31.9,24.6,10.6,0000.0,0004.46,0008.55,0003.84
2022-01-15 21:05:00,,0828.7,5.01,0.00,22.9,22.4,00.0,31.9,24.6,10.4,0000.0,0004.39,0008.39,0003.80
2022-01-15 21:06:00,,0828.5,5.00,0.00,22.9,22.4,00.0,31.9,24.6,10.5,0000.0,0004.36,0008.45,0003.76
2022-01-15 21:07:00,,0828.8,5.00,0.00,22.9,22.4,00.0,31.9,24.6,10.7,0000.0,0004.34,0008.42,0003.74
2022-01-15 21:08:00,,0829.1,5.00,0.00,22.9,22.4,00.0,31.9,24.7,10.5,0000.0,0004.28,0008.28,0003.72
2022-01-15 21:09:00,,0828.9,4.99,0.00,22.9,22.4,00.0,31.9,24.7,10.5,0000.0,0004.23,0008.03,0003.68
2022-01-15 21:10:00,,0829.1,5.02,0.00,22.9,22.4,00.0,31.9,24.8,10.5,0000.0,0004.20,0008.00,0003.65
2022-01-15 21:11:00,,0829.0,4.99,0.00,22.9,22.4,00.0,31.9,24.8,10.6,0000.0,0004.18,0008.17,0003.61
2022-01-15 21:12:00,,0829.0,5.00,0.00,22.9,22.4,00.0,31.9,24.8,10.6,0000.0,0004.17,0008.46,0003.60
2022-01-15 21:13:00,,0828.8,5.01,0.00,23.0,22.5,00.0,31.9,24.8,10.5,0000.0,0004.17,0008.52,0003.58
2022-01-15 21:14:00,,0828.5,4.99,0.00,23.0,22.5,00.0,31.9,24.8,10.7,0000.0,0004.15,0008.32,0003.57
2022-01-15 21:15:00,,0828.4,5.02,0.00,23.0,22.5,00.0,31.9,24.8,10.4,0000.0,0004.16,0008.32,0003.57
2022-01-15 21:16:00,,0828.3,4.98,0.00,23.0,22.5,00.0,31.9,24.8,10.5,0000.0,0004.20,0009.72,0003.59
2022-01-15 21:17:00,,0828.3,5.00,0.00,23.0,22.5,00.0,32.0,24.8,10.5,0000.0,0004.21,0009.92,0003.60
2022-01-15 21:18:00,,0828.3,5.00,0.00,23.0,22.5,00.0,32.0,24.9,10.6,0000.0,0004.21,0009.90,0003.61
2022-01-15 21:19:00,,0828.3,5.01,0.00,23.0,22.6,00.0,32.0,24.9,10.5,0000.0,0004.22,0009.92,0003.60
2022-01-15 21:20:00,,0828.2,4.98,0.00,23.1,22.6,00.0,32.0,24.9,10.6,0000.0,0004.26,0010.65,0003.62
2022-01-15 21:21:00,,0828.2,5.01,0.00,23.1,22.6,00.0,32.0,24.9,10.4,0000.0,0004.26,0011.40,0003.64
2022-01-15 21:22:00,,0828.3,4.99,0.00,23.1,22.6,00.0,32.0,24.9,10.5,0000.0,0004.25,0011.52,0003.66
2022-01-15 21:23:00,,0828.2,5.01,0.00,23.1,22.6,00.0,32.0,24.9,10.7,0000.0,0004.27,0011.31,0003.68
2022-01-15 21:24:00,,0828.2,5.00,0.00,23.1,22.6,00.0,32.0,24.9,10.6,0000.0,0004.27,0011.21,0003.70
2022-01-15 21:25:00,,0828.3,5.01,0.00,23.1,22.6,00.0,32.0,24.9,10.6,0000.0,0004.31,0011.37,0003.73
2022-01-15 21:26:00,,0828.2,5.01,0.00,23.1,22.6,00.0,32.0,24.9,10.6,0000.0,0004.28,0011.39,0003.74
2022-01-15 21:27:00,,0828.2,4.99,0.00,23.1,22.6,00.0,32.0,24.9,10.6,0000.0,0004.27,0010.09,0003.75
2022-01-15 21:28:00,,0828.3,5.01,0.00,23.1,22.6,00.0,32.1,24.9,10.6,0000.0,0004.25,0009.75,0003.76
2022-01-15 21:29:00,,0828.2,4.99,0.00,23.1,22.6,00.0,32.1,24.9,10.7,0000.0,0004.28,0009.80,0003.77
2022-01-15 21:30:00,,0828.2,4.99,0.00,23.2,22.7,00.0,32.1,24.9,10.7,0000.0,0004.33,0009.89,0003.79
2022-01-15 21:31:00,,0828.2,5.00,0.00,23.2,22.7,00.0,32.1,25.0,10.8,0000.0,0004.33,0009.16,0003.80
2022-01-15 21:32:00,,0828.3,5.00,0.00,23.2,22.7,00.0,32.1,25.0,10.7,0000.0,0004.34,0008.46,0003.81
2022-01-15 21:33:00,,0828.3,4.99,0.00,23.2,22.7,00.0,32.1,25.0,10.7,0000.0,0004.34,0008.65,0003.81
2022-01-15 21:34:00,,0828.5,5.00,0.00,23.2,22.7,00.0,32.1,25.0,10.8,0000.0,0004.31,0008.54,0003.81
2022-01-15 21:35:00,,0828.4,5.00,0.00,23.2,22.7,00.0,32.2,25.1,10.8,0000.0,0004.29,0008.59,0003.80
2022-01-15 21:36:00,,0828.4,4.99,0.00,23.3,22.8,00.0,32.2,25.1,11.0,0000.0,0004.26,0008.84,0003.79
2022-01-15 21:37:00,,0828.3,4.99,0.00,23.3,22.8,00.0,32.2,25.1,10.8,0000.0,0004.26,0008.98,0003.79
2022-01-15 21:38:00,,0828.3,5.02,0.00,23.3,22.8,00.0,32.2,25.1,10.7,0000.0,0004.28,0009.55,0003.78
2022-01-15 21:39:00,,0828.1,4.99,0.00,23.3,22.8,00.0,32.2,25.1,10.6,0000.0,0004.30,0010.03,0003.77
2022-01-15 21:40:00,,0828.3,5.01,0.00,23.3,22.8,00.0,32.2,25.1,10.7,0000.0,0004.28,0010.67,0003.76
2022-01-15 21:41:00,,0828.1,4.99,0.00,23.3,22.9,00.0,32.2,25.2,10.6,0000.0,0004.23,0010.76,0003.74
2022-01-15 21:42:00,,0828.1,5.01,0.00,23.4,22.9,00.0,32.2,25.2,10.7,0000.0,0004.18,0010.71,0003.71
2022-01-15 21:43:00,,0828.2,4.99,0.00,23.4,22.9,00.0,32.3,25.2,10.6,0000.0,0004.12,0010.56,0003.68
2022-01-15 21:44:00,,0828.1,5.00,0.00,23.4,22.9,00.0,32.3,25.2,10.6,0000.0,0004.12,0010.08,0003.65
2022-01-15 21:45:00,,0828.1,4.99,0.00,23.4,22.9,00.0,32.3,25.2,10.7,0000.0,0004.14,0010.15,0003.63
2022-01-15 21:46:00,,0828.0,5.00,0.00,23.4,23.0,00.0,32.3,25.3,10.5,0000.0,0004.15,0010.19,0003.60
2022-01-15 21:47:00,,0828.0,5.00,0.00,23.5,23.0,00.0,32.3,25.3,10.5,0000.0,0004.12,0010.25,0003.57
2022-01-15 21:48:00,,0828.0,4.99,0.00,23.5,23.0,00.0,32.3,25.3,10.3,0000.0,0004.09,0010.27,0003.53
2022-01-15 21:49:00,,0828.1,5.01,0.00,23.5,23.0,00.0,32.4,25.3,10.2,0000.0,0004.00,0009.64,0003.48
2022-01-15 21:50:00,,0827.9,4.98,0.00,23.5,23.0,00.0,32.4,25.3,10.2,0000.0,0003.94,0009.11,0003.44
2022-01-15 21:51:00,,0828.0,5.01,0.00,23.5,23.0,00.0,32.4,25.4,10.3,0000.0,0003.89,0008.33,0003.40
2022-01-15 21:52:00,,0828.0,4.99,0.00,23.5,23.0,00.0,32.4,25.4,10.4,0000.0,0003.86,0008.09,0003.38
2022-01-15 21:53:00,,0827.9,5.00,0.00,23.5,23.0,00.0,32.4,25.4,10.3,0000.0,0003.83,0008.03,0003.35
2022-01-15 21:54:00,,0827.9,5.00,0.00,23.6,23.0,00.0,32.4,25.4,10.2,0000.0,0003.82,0008.42,0003.33
2022-01-15 21:55:00,,0827.9,4.99,0.00,23.6,23.0,00.0,32.4,25.4,10.3,0000.0,0003.79,0008.69,0003.32
2022-01-15 21:56:00,,0827.9,5.01,0.00,23.6,23.0,00.0,32.4,25.4,10.4,0000.0,0003.78,0008.81,0003.30
2022-01-15 21:57:00,,0827.9,4.99,0.00,23.6,23.1,00.0,32.5,25.4,10.5,0000.0,0003.75,0009.02,0003.30
2022-01-15 21:58:00,,0827.9,5.01,0.00,23.6,23.1,00.0,32.5,25.5,10.3,0000.0,0003.71,0008.77,0003.29
2022-01-15 21:59:00,,0828.0,5.01,0.00,23.6,23.1,00.0,32.5,25.5,10.1,0000.0,0003.71,0008.42,0003.28
